Weather History for Dumas, TX

Change the Weather History Date:

Friday, January 24, 2014

  Actual Average (KBGD) Record (KBGD)
Temperature  
Mean Temperature 29 °F 40 °F  
Max Temperature 53 °F 52 °F 78 °F (1950)
Min Temperature 5 °F 27 °F 5 °F (1963)
Degree Days  
Heating Degree Days 36 25  
Month to date heating degree days 641  
Since 1 July heating degree days 2178  
Cooling Degree Days 0 0  
Month to date cooling degree days 0  
Year to date cooling degree days 0  
Moisture  
Dew Point 14 °F    
Average Humidity 61    
Maximum Humidity 84    
Minimum Humidity 20    
Precipitation  
Precipitation 0.00 in 0.02 in 0.16 in (1978)
Month to date precipitation 0.41  
Year to date precipitation 0.41  
Snow  
Snow 0.00 in - 2.50 in (1978)
Month to date snowfall  
Since 1 July snowfall  
Snow Depth -    
Sea Level Pressure  
Sea Level Pressure 30.30 in    
Wind  
Wind Speed 15 mph (WSW)    
Max Wind Speed 22 mph    
Max Gust Speed 28 mph    
Visibility 10 miles    
Events      
T = Trace of Precipitation, MM = Missing Value Source: NWS Daily Summary

Daily Weather History Graph

Daily Weather History Graph

Search for Another Location

Airport:

Trip Planner

Search our weather history database for the weather conditions in past years. The results will help you decide how hot, cold, wet, or windy it might be!

Date:

Astronomy

Jan. 24, 2014 Rise Set
Actual Time 7:53 AM CST 6:06 PM CST
Civil Twilight 7:26 AM CST 6:34 PM CST
Nautical Twilight 6:55 AM CST 7:05 PM CST
Astronomical Twilight 6:25 AM CST 7:35 PM CST
Moon 1:25 AM CST (1/24) 12:25 PM CST (1/24)
Length of Visible Light 11h 07m
Length of Day
10h 13m
Last Quarter, 44% of the Moon is Illuminated
Jan 24
Last Quarter
Jan 30
New
Feb 6
First Quarter
Feb 14
Full
Feb 22
Last Quarter

Hourly Weather History & Observations

Time (CST) Temp. Windchill Dew Point Humidity Pressure Visibility Wind Dir Wind Speed Gust Speed Precip Events Conditions
12:15 AM 5.9 °F -10.5 °F 1.8 °F 83% 30.56 in 10.0 mi SW 12.7 mph - N/A   Clear
12:35 AM 6.1 °F -10.9 °F 1.9 °F 83% 30.56 in 10.0 mi WSW 13.8 mph - N/A   Clear
12:55 AM 6.4 °F -9.0 °F 2.1 °F 82% 30.55 in 10.0 mi SW 11.5 mph - N/A   Clear
1:15 AM 6.1 °F -9.5 °F 1.6 °F 82% 30.54 in 10.0 mi SW 11.5 mph - N/A   Clear
1:35 AM 7.3 °F -10.0 °F 3.0 °F 82% 30.53 in 10.0 mi SW 15.0 mph - N/A   Clear
1:55 AM 7.7 °F -9.5 °F 3.2 °F 82% 30.52 in 10.0 mi SW 15.0 mph - N/A   Clear
2:15 AM 7.7 °F -8.9 °F 3.2 °F 82% 30.51 in 10.0 mi SW 13.8 mph - N/A   Clear
2:35 AM 8.2 °F -8.2 °F 3.9 °F 83% 30.50 in 10.0 mi SW 13.8 mph - N/A   Clear
2:55 AM 8.4 °F -8.6 °F 4.1 °F 83% 30.49 in 10.0 mi SW 15.0 mph - N/A   Clear
3:15 AM 9.0 °F -8.5 °F 4.8 °F 83% 30.48 in 10.0 mi WSW 16.1 mph - N/A   Clear
3:35 AM 8.6 °F -10.0 °F 4.3 °F 83% 30.46 in 10.0 mi SW 18.4 mph - N/A   Clear
3:55 AM 7.7 °F -10.1 °F 3.7 °F 84% 30.46 in 10.0 mi SW 16.1 mph - N/A   Clear
4:15 AM 7.7 °F -8.2 °F 3.7 °F 84% 30.44 in 10.0 mi SW 12.7 mph - N/A   Clear
4:35 AM 9.1 °F -7.7 °F 5.2 °F 84% 30.43 in 10.0 mi SW 15.0 mph - N/A   Clear
4:55 AM 10.4 °F -8.2 °F 5.9 °F 82% 30.42 in 10.0 mi WSW 19.6 mph - N/A   Clear
5:15 AM 11.8 °F -7.2 °F 6.8 °F 80% 30.41 in 10.0 mi WSW 21.9 mph - N/A   Clear
5:35 AM 11.3 °F -7.9 °F 6.4 °F 81% 30.40 in 10.0 mi SW 21.9 mph 25.3 mph N/A   Clear
5:55 AM 10.4 °F -8.2 °F 5.9 °F 82% 30.38 in 10.0 mi SW 19.6 mph - N/A   Clear
6:15 AM 10.9 °F -7.5 °F 6.3 °F 81% 30.38 in 10.0 mi SW 19.6 mph - N/A   Clear
6:35 AM 11.1 °F -6.2 °F 6.4 °F 81% 30.37 in 10.0 mi SW 17.3 mph - N/A   Clear
6:55 AM 11.8 °F -6.7 °F 6.8 °F 80% 30.36 in 10.0 mi WSW 20.7 mph - N/A   Clear
7:15 AM 12.2 °F -6.3 °F 7.3 °F 81% 30.35 in 10.0 mi WSW 20.7 mph 27.6 mph N/A   Clear
7:35 AM 12.9 °F -5.3 °F 7.7 °F 80% 30.35 in 10.0 mi WSW 20.7 mph - N/A   Clear
7:55 AM 14.5 °F -3.6 °F 8.6 °F 77% 30.34 in 10.0 mi WSW 21.9 mph 26.5 mph N/A   Clear
8:15 AM 14.9 °F -2.7 °F 9.0 °F 77% 30.33 in 10.0 mi WSW 20.7 mph - N/A   Clear
8:35 AM 15.8 °F -0.6 °F 9.5 °F 76% 30.34 in 10.0 mi WSW 18.4 mph - N/A   Clear
8:55 AM 16.7 °F 0.5 °F 10.2 °F 76% 30.34 in 10.0 mi WSW 18.4 mph - N/A   Clear
9:15 AM 18.1 °F 1.6 °F 11.1 °F 74% 30.34 in 10.0 mi WSW 20.7 mph - N/A   Clear
9:35 AM 19.8 °F 4.1 °F 12.4 °F 73% 30.33 in 10.0 mi WSW 19.6 mph 25.3 mph N/A   Clear
9:55 AM 22.1 °F 6.8 °F 14.0 °F 71% 30.33 in 10.0 mi WSW 20.7 mph - N/A   Clear
10:15 AM 24.8 °F 10.3 °F 15.6 °F 68% 30.32 in 10.0 mi WSW 20.7 mph 25.3 mph N/A   Clear
10:35 AM 26.4 °F 12.8 °F 16.5 °F 66% 30.32 in 10.0 mi WSW 19.6 mph - N/A   Clear
10:55 AM 27.1 °F 13.1 °F 17.2 °F 66% 30.33 in 10.0 mi WSW 21.9 mph 27.6 mph N/A   Clear
11:15 AM 27.7 °F 13.8 °F 17.8 °F 66% 30.33 in 10.0 mi WSW 21.9 mph - N/A   Clear
11:35 AM 29.8 °F 18.0 °F 19.9 °F 67% 30.32 in 10.0 mi WSW 17.3 mph 25.3 mph N/A   Clear
11:55 AM 31.6 °F 20.0 °F 21.2 °F 65% 30.30 in 10.0 mi WSW 18.4 mph - N/A   Clear
12:15 PM 33.1 °F 21.5 °F 22.6 °F 66% 30.30 in 10.0 mi WSW 19.6 mph - N/A   Clear
12:35 PM 35.8 °F 26.1 °F 24.4 °F 63% 30.29 in 10.0 mi West 16.1 mph - N/A   Clear
12:55 PM 37.8 °F 28.3 °F 25.5 °F 61% 30.27 in 10.0 mi WSW 17.3 mph - N/A   Clear
1:15 PM 40.3 °F 31.3 °F 27.3 °F 60% 30.26 in 10.0 mi West 18.4 mph - N/A   Clear
1:35 PM 43.2 °F 35.6 °F 26.8 °F 52% 30.24 in 10.0 mi West 16.1 mph - N/A   Clear
1:55 PM 46.2 °F 40.1 °F 26.1 °F 45% 30.23 in 10.0 mi West 13.8 mph - N/A   Clear
2:15 PM 47.5 °F - 26.1 °F 43% 30.21 in 10.0 mi West 12.7 mph - N/A   Clear
2:35 PM 48.9 °F - 23.9 °F 38% 30.20 in 10.0 mi West 12.7 mph - N/A   Clear
2:55 PM 50.0 °F - 21.0 °F 32% 30.20 in 10.0 mi West 10.4 mph - N/A   Clear
3:15 PM 50.9 °F - 20.5 °F 30% 30.20 in 10.0 mi West 9.2 mph - N/A   Clear
3:35 PM 52.2 °F - 16.9 °F 25% 30.19 in 10.0 mi West 8.1 mph - N/A   Clear
3:55 PM 52.9 °F - 15.4 °F 23% 30.18 in 10.0 mi West 6.9 mph - N/A   Clear
4:15 PM 53.1 °F - 12.7 °F 20% 30.19 in 10.0 mi West 6.9 mph - N/A   Clear
4:35 PM 53.1 °F - 18.3 °F 26% 30.18 in 10.0 mi WSW 9.2 mph - N/A   Clear
4:55 PM 52.0 °F - 19.2 °F 28% 30.18 in 10.0 mi WSW 9.2 mph - N/A   Clear
5:15 PM 50.9 °F - 19.2 °F 29% 30.18 in 10.0 mi WSW 8.1 mph - N/A   Clear
5:35 PM 48.4 °F - 21.2 °F 34% 30.18 in 10.0 mi WSW 8.1 mph - N/A   Clear
5:55 PM 43.9 °F 38.3 °F 21.0 °F 40% 30.18 in 10.0 mi WSW 10.4 mph - N/A   Clear
6:15 PM 40.3 °F 33.9 °F 22.1 °F 48% 30.18 in 10.0 mi WSW 10.4 mph - N/A   Clear
6:35 PM 38.1 °F 31.2 °F 22.5 °F 53% 30.18 in 10.0 mi WSW 10.4 mph - N/A   Clear
6:55 PM 36.7 °F 29.4 °F 21.0 °F 53% 30.19 in 10.0 mi WSW 10.4 mph - N/A   Clear
7:15 PM 36.7 °F 29.4 °F 20.3 °F 52% 30.19 in 10.0 mi WSW 10.4 mph - N/A   Clear
7:35 PM 36.5 °F 29.2 °F 20.1 °F 52% 30.19 in 10.0 mi WSW 10.4 mph - N/A   Clear
7:55 PM 34.9 °F 27.1 °F 19.9 °F 55% 30.19 in 10.0 mi WSW 10.4 mph - N/A   Clear
8:15 PM 36.7 °F 28.0 °F 18.9 °F 49% 30.19 in 10.0 mi WSW 13.8 mph - N/A   Clear
8:35 PM 37.4 °F 28.2 °F 18.5 °F 46% 30.18 in 10.0 mi WSW 16.1 mph - N/A   Clear
8:55 PM 37.8 °F 29.0 °F 18.1 °F 45% 30.18 in 10.0 mi WSW 15.0 mph - N/A   Clear
9:15 PM 37.9 °F 29.2 °F 17.6 °F 44% 30.18 in 10.0 mi WSW 15.0 mph - N/A   Clear
9:35 PM 36.7 °F 27.6 °F 18.0 °F 47% 30.18 in 10.0 mi WSW 15.0 mph - N/A   Clear
9:55 PM 35.4 °F 26.8 °F 18.1 °F 49% 30.18 in 10.0 mi West 12.7 mph - N/A   Clear
10:15 PM 37.0 °F 29.3 °F 16.7 °F 44% 30.19 in 10.0 mi WSW 11.5 mph - N/A   Clear
10:35 PM 35.4 °F 26.4 °F 16.9 °F 47% 30.19 in 10.0 mi West 13.8 mph - N/A   Clear
10:55 PM 36.3 °F 28.4 °F 15.4 °F 43% 30.19 in 10.0 mi West 11.5 mph - N/A   Clear
11:15 PM 34.5 °F 26.2 °F 16.0 °F 47% 30.19 in 10.0 mi West 11.5 mph - N/A   Clear
11:35 PM 33.8 °F 25.8 °F 16.0 °F 48% 30.19 in 10.0 mi West 10.4 mph - N/A   Clear
11:55 PM 33.8 °F 25.3 °F 16.5 °F 49% 30.19 in 10.0 mi West 11.5 mph - N/A   Clear